Time,TemperatureF,DewpointF,PressureIn,WindDirection,WindDirectionDegrees,WindSpeedMPH,WindSpeedGustMPH,Humidity,HourlyPrecipIn,Conditions,Clouds,dailyrainin,SoftwareType,DateUTC
2013-01-03 00:05:00,4.1,-9.3,30.20,WSW,250,2.0,4.0,53,0.00,,,0.00,Wunderground v.1.15,2013-01-03 05:05:00,
2013-01-03 00:10:00,3.4,-9.2,30.20,WSW,237,3.0,5.0,55,0.00,,,0.00,Wunderground v.1.15,2013-01-03 05:10:00,
2013-01-03 00:15:00,2.7,-9.1,30.20,SW,232,3.0,5.0,57,0.00,,,0.00,Wunderground v.1.15,2013-01-03 05:15:00,
2013-01-03 00:20:00,2.5,-9.3,30.20,SW,216,5.0,6.0,57,0.00,,,0.00,Wunderground v.1.15,2013-01-03 05:20:00,
2013-01-03 00:25:00,2.5,-9.3,30.20,SW,221,6.0,6.0,57,0.00,,,0.00,Wunderground v.1.15,2013-01-03 05:25:00,
2013-01-03 00:30:00,3.0,-8.8,30.20,SSW,201,6.0,6.0,57,0.00,,,0.00,Wunderground v.1.15,2013-01-03 05:30:00,
2013-01-03 00:35:00,4.0,-8.2,30.21,SSW,203,4.0,4.0,56,0.00,,,0.00,Wunderground v.1.15,2013-01-03 05:35:00,
2013-01-03 00:40:00,4.6,-8.4,30.20,WSW,253,3.0,4.0,54,0.00,,,0.00,Wunderground v.1.15,2013-01-03 05:40:00,
2013-01-03 00:45:00,5.0,-8.4,30.21,SW,225,3.0,3.0,53,0.00,,,0.00,Wunderground v.1.15,2013-01-03 05:45:00,
2013-01-03 00:55:00,4.9,-8.5,30.20,West,281,3.0,4.0,53,0.00,,,0.00,Wunderground v.1.15,2013-01-03 05:55:00,
2013-01-03 01:00:00,4.8,-8.2,30.20,West,273,4.0,6.0,54,0.00,,,0.00,Wunderground v.1.15,2013-01-03 06:00:00,
2013-01-03 01:10:00,4.4,-8.2,30.20,West,259,3.0,3.0,55,0.00,,,0.00,Wunderground v.1.15,2013-01-03 06:10:00,
2013-01-03 01:15:00,4.4,-8.2,30.20,SSW,207,3.0,3.0,55,0.00,,,0.00,Wunderground v.1.15,2013-01-03 06:15:00,
2013-01-03 01:20:00,4.4,-8.2,30.21,SW,223,3.0,3.0,55,0.00,,,0.00,Wunderground v.1.15,2013-01-03 06:20:00,
2013-01-03 01:25:00,4.3,-8.0,30.21,SW,232,3.0,3.0,56,0.00,,,0.00,Wunderground v.1.15,2013-01-03 06:25:00,
2013-01-03 01:30:00,4.6,-8.0,30.22,SW,235,3.0,3.0,55,0.00,,,0.00,Wunderground v.1.15,2013-01-03 06:30:00,
2013-01-03 01:35:00,4.6,-8.0,30.21,SSW,199,3.0,3.0,55,0.00,,,0.00,Wunderground v.1.15,2013-01-03 06:35:00,
2013-01-03 01:40:00,4.7,-8.0,30.21,NNW,336,2.0,2.0,55,0.00,,,0.00,Wunderground v.1.15,2013-01-03 06:40:00,
2013-01-03 01:45:00,4.5,-8.1,30.21,SW,234,2.0,6.0,55,0.00,,,0.00,Wunderground v.1.15,2013-01-03 06:45:00,
2013-01-03 01:50:00,4.2,-8.1,30.22,SW,220,3.0,3.0,56,0.00,,,0.00,Wunderground v.1.15,2013-01-03 06:50:00,
2013-01-03 01:55:00,4.3,-8.0,30.22,SW,217,3.0,4.0,56,0.00,,,0.00,Wunderground v.1.15,2013-01-03 06:55:00,
2013-01-03 02:00:00,4.3,-8.0,30.22,WSW,242,4.0,4.0,56,0.00,,,0.00,Wunderground v.1.15,2013-01-03 07:00:00,
2013-01-03 02:05:00,3.8,-8.4,30.22,SW,229,5.0,5.0,56,0.00,,,0.00,Wunderground v.1.15,2013-01-03 07:05:00,
2013-01-03 02:10:00,3.4,-8.4,30.22,SW,219,4.0,4.0,57,0.00,,,0.00,Wunderground v.1.15,2013-01-03 07:10:00,
2013-01-03 02:15:00,3.3,-8.5,30.22,WSW,254,4.0,4.0,57,0.00,,,0.00,Wunderground v.1.15,2013-01-03 07:15:00,
2013-01-03 02:20:00,3.3,-8.5,30.22,SW,234,4.0,6.0,57,0.00,,,0.00,Wunderground v.1.15,2013-01-03 07:20:00,
2013-01-03 02:25:00,3.3,-8.2,30.23,SW,229,4.0,8.0,58,0.00,,,0.00,Wunderground v.1.15,2013-01-03 07:25:00,
2013-01-03 02:30:00,3.4,-8.1,30.22,West,261,4.0,4.0,58,0.00,,,0.00,Wunderground v.1.15,2013-01-03 07:30:00,
2013-01-03 02:35:00,3.7,-7.8,30.23,WSW,237,3.0,4.0,58,0.00,,,0.00,Wunderground v.1.15,2013-01-03 07:35:00,
2013-01-03 02:40:00,4.5,-7.4,30.23,WSW,248,3.0,3.0,57,0.00,,,0.00,Wunderground v.1.15,2013-01-03 07:40:00,
2013-01-03 02:45:00,4.9,-7.4,30.22,WSW,244,3.0,3.0,56,0.00,,,0.00,Wunderground v.1.15,2013-01-03 07:45:00,
2013-01-03 02:55:00,5.1,-7.2,30.22,WSW,243,3.0,4.0,56,0.00,,,0.00,Wunderground v.1.15,2013-01-03 07:55:00,
2013-01-03 03:00:00,4.9,-7.4,30.23,SW,234,3.0,3.0,56,0.00,,,0.00,Wunderground v.1.15,2013-01-03 08:00:00,
2013-01-03 03:05:00,4.6,-7.7,30.23,SW,233,4.0,5.0,56,0.00,,,0.00,Wunderground v.1.15,2013-01-03 08:05:00,
2013-01-03 03:10:00,4.9,-7.4,30.22,WSW,257,4.0,4.0,56,0.00,,,0.00,Wunderground v.1.15,2013-01-03 08:10:00,
2013-01-03 03:15:00,4.9,-7.4,30.22,SW,223,4.0,4.0,56,0.00,,,0.00,Wunderground v.1.15,2013-01-03 08:15:00,
2013-01-03 03:20:00,5.2,-7.1,30.22,SW,228,4.0,4.0,56,0.00,,,0.00,Wunderground v.1.15,2013-01-03 08:20:00,
2013-01-03 03:25:00,5.5,-6.8,30.22,SW,233,3.0,4.0,56,0.00,,,0.00,Wunderground v.1.15,2013-01-03 08:25:00,
2013-01-03 03:30:00,5.7,-6.6,30.22,WSW,238,3.0,3.0,56,0.00,,,0.00,Wunderground v.1.15,2013-01-03 08:30:00,
2013-01-03 03:35:00,5.6,-6.7,30.22,WSW,245,3.0,3.0,56,0.00,,,0.00,Wunderground v.1.15,2013-01-03 08:35:00,
2013-01-03 03:40:00,5.4,-6.9,30.22,WSW,244,2.0,2.0,56,0.00,,,0.00,Wunderground v.1.15,2013-01-03 08:40:00,
2013-01-03 03:45:00,5.4,-6.6,30.22,WSW,252,2.0,3.0,57,0.00,,,0.00,Wunderground v.1.15,2013-01-03 08:45:00,
2013-01-03 03:50:00,5.6,-6.7,30.22,WSW,238,2.0,2.0,56,0.00,,,0.00,Wunderground v.1.15,2013-01-03 08:50:00,
2013-01-03 03:55:00,5.8,-6.5,30.22,WSW,238,2.0,2.0,56,0.00,,,0.00,Wunderground v.1.15,2013-01-03 08:55:00,
2013-01-03 04:01:00,5.8,-6.5,30.21,SW,236,2.0,3.0,56,0.00,,,0.00,Wunderground v.1.15,2013-01-03 09:01:00,
2013-01-03 04:05:00,5.7,-6.6,30.21,SW,228,3.0,3.0,56,0.00,,,0.00,Wunderground v.1.15,2013-01-03 09:05:00,
2013-01-03 04:10:00,5.8,-6.5,30.21,SW,227,3.0,3.0,56,0.00,,,0.00,Wunderground v.1.15,2013-01-03 09:10:00,
2013-01-03 04:15:00,5.8,-6.5,30.21,SSW,213,2.0,2.0,56,0.00,,,0.00,Wunderground v.1.15,2013-01-03 09:15:00,
2013-01-03 04:20:00,5.9,-6.5,30.21,WSW,248,2.0,2.0,56,0.00,,,0.00,Wunderground v.1.15,2013-01-03 09:20:00,
2013-01-03 04:25:00,5.9,-6.5,30.21,WSW,248,2.0,2.0,56,0.00,,,0.00,Wunderground v.1.15,2013-01-03 09:25:00,
2013-01-03 04:30:00,5.9,-6.1,30.21,SW,231,2.0,2.0,57,0.00,,,0.00,Wunderground v.1.15,2013-01-03 09:30:00,
2013-01-03 04:35:00,6.0,-6.0,30.21,SW,222,2.0,2.0,57,0.00,,,0.00,Wunderground v.1.15,2013-01-03 09:35:00,
2013-01-03 04:40:00,6.0,-6.0,30.21,SW,234,2.0,2.0,57,0.00,,,0.00,Wunderground v.1.15,2013-01-03 09:40:00,
2013-01-03 04:45:00,6.1,-5.9,30.21,SW,233,2.0,2.0,57,0.00,,,0.00,Wunderground v.1.15,2013-01-03 09:45:00,
2013-01-03 04:50:00,6.2,-5.8,30.21,SW,224,3.0,3.0,57,0.00,,,0.00,Wunderground v.1.15,2013-01-03 09:50:00,
2013-01-03 04:55:00,6.2,-5.8,30.21,SW,225,3.0,3.0,57,0.00,,,0.00,Wunderground v.1.15,2013-01-03 09:55:00,
2013-01-03 05:05:00,6.4,-6.0,30.21,SSW,212,2.0,3.0,56,0.00,,,0.00,Wunderground v.1.15,2013-01-03 10:05:00,
2013-01-03 05:10:00,6.5,-5.9,30.21,SSW,212,2.0,2.0,56,0.00,,,0.00,Wunderground v.1.15,2013-01-03 10:10:00,
2013-01-03 05:15:00,6.9,-4.8,30.21,SSW,212,1.0,2.0,58,0.00,,,0.00,Wunderground v.1.15,2013-01-03 10:15:00,
2013-01-03 05:20:00,6.4,-6.0,30.21,West,267,1.0,2.0,56,0.00,,,0.00,Wunderground v.1.15,2013-01-03 10:20:00,
2013-01-03 05:25:00,6.2,-6.2,30.22,WSW,253,2.0,2.0,56,0.00,,,0.00,Wunderground v.1.15,2013-01-03 10:25:00,
2013-01-03 05:30:00,6.1,-5.9,30.22,SW,234,2.0,2.0,57,0.00,,,0.00,Wunderground v.1.15,2013-01-03 10:30:00,
2013-01-03 05:35:00,6.0,-6.0,30.22,SW,227,2.0,2.0,57,0.00,,,0.00,Wunderground v.1.15,2013-01-03 10:35:00,
2013-01-03 05:40:00,6.0,-6.0,30.22,SW,227,2.0,2.0,57,0.00,,,0.00,Wunderground v.1.15,2013-01-03 10:40:00,
2013-01-03 05:45:00,6.1,-5.9,30.22,SW,229,2.0,2.0,57,0.00,,,0.00,Wunderground v.1.15,2013-01-03 10:45:00,
2013-01-03 05:50:00,6.3,-5.7,30.22,SW,231,2.0,4.0,57,0.00,,,0.00,Wunderground v.1.15,2013-01-03 10:50:00,
2013-01-03 05:55:00,6.4,-5.6,30.22,WSW,240,2.0,4.0,57,0.00,,,0.00,Wunderground v.1.15,2013-01-03 10:55:00,
2013-01-03 06:00:00,6.5,-5.5,30.22,WSW,240,2.0,2.0,57,0.00,,,0.00,Wunderground v.1.15,2013-01-03 11:00:00,
2013-01-03 06:05:00,6.5,-5.5,30.22,WSW,240,1.0,2.0,57,0.00,,,0.00,Wunderground v.1.15,2013-01-03 11:05:00,
2013-01-03 06:10:00,6.8,-4.5,30.22,WSW,240,1.0,1.0,59,0.00,,,0.00,Wunderground v.1.15,2013-01-03 11:10:00,
2013-01-03 06:15:00,6.9,-4.8,30.21,WSW,240,0.0,1.0,58,0.00,,,0.00,Wunderground v.1.15,2013-01-03 11:15:00,
2013-01-03 06:20:00,6.6,-5.4,30.22,WSW,240,0.0,0.0,57,0.00,,,0.00,Wunderground v.1.15,2013-01-03 11:20:00,
2013-01-03 06:30:00,5.4,-5.8,30.22,WSW,240,1.0,2.0,59,0.00,,,0.00,Wunderground v.1.15,2013-01-03 11:30:00,
2013-01-03 06:35:00,5.3,-5.9,30.22,WSW,240,2.0,2.0,59,0.00,,,0.00,Wunderground v.1.15,2013-01-03 11:35:00,
2013-01-03 06:40:00,5.3,-5.6,30.22,WSW,240,2.0,2.0,60,0.00,,,0.00,Wunderground v.1.15,2013-01-03 11:40:00,
2013-01-03 06:45:00,5.4,-5.8,30.22,WSW,240,1.0,2.0,59,0.00,,,0.00,Wunderground v.1.15,2013-01-03 11:45:00,
2013-01-03 06:50:00,5.6,-5.7,30.23,WSW,240,1.0,3.0,59,0.00,,,0.00,Wunderground v.1.15,2013-01-03 11:50:00,
2013-01-03 06:55:00,5.7,-5.6,30.23,WSW,246,2.0,3.0,59,0.00,,,0.00,Wunderground v.1.15,2013-01-03 11:55:00,
2013-01-03 07:00:00,5.8,-5.8,30.23,WSW,246,2.0,2.0,58,0.00,,,0.00,Wunderground v.1.15,2013-01-03 12:00:00,
2013-01-03 07:10:00,5.7,-5.9,30.23,WSW,246,1.0,2.0,58,0.00,,,0.00,Wunderground v.1.15,2013-01-03 12:10:00,
2013-01-03 07:15:00,5.8,-5.8,30.23,WSW,246,1.0,2.0,58,0.00,,,0.00,Wunderground v.1.15,2013-01-03 12:15:00,
2013-01-03 07:20:00,5.9,-5.7,30.24,WSW,246,2.0,2.0,58,0.00,,,0.00,Wunderground v.1.15,2013-01-03 12:20:00,
2013-01-03 07:25:00,6.0,-5.6,30.24,SW,234,2.0,2.0,58,0.00,,,0.00,Wunderground v.1.15,2013-01-03 12:25:00,
2013-01-03 07:30:00,6.1,-5.5,30.24,SW,234,2.0,2.0,58,0.00,,,0.00,Wunderground v.1.15,2013-01-03 12:30:00,
2013-01-03 07:35:00,6.1,-5.5,30.24,SW,234,1.0,2.0,58,0.00,,,0.00,Wunderground v.1.15,2013-01-03 12:35:00,
2013-01-03 07:40:00,6.3,-5.3,30.24,SW,234,1.0,1.0,58,0.00,,,0.00,Wunderground v.1.15,2013-01-03 12:40:00,
2013-01-03 07:45:00,6.4,-5.3,30.24,SW,234,1.0,2.0,58,0.00,,,0.00,Wunderground v.1.15,2013-01-03 12:45:00,
2013-01-03 07:50:00,6.4,-5.3,30.24,SW,227,2.0,3.0,58,0.00,,,0.00,Wunderground v.1.15,2013-01-03 12:50:00,
2013-01-03 07:55:00,6.7,-5.3,30.24,SW,227,2.0,3.0,57,0.00,,,0.00,Wunderground v.1.15,2013-01-03 12:55:00,
2013-01-03 08:05:00,7.0,-5.0,30.24,SW,219,2.0,3.0,57,0.00,,,0.00,Wunderground v.1.15,2013-01-03 13:05:00,
2013-01-03 08:10:00,7.3,-5.1,30.24,SW,230,3.0,3.0,56,0.00,,,0.00,Wunderground v.1.15,2013-01-03 13:10:00,
2013-01-03 08:20:00,7.6,-4.9,30.24,SW,220,3.0,3.0,56,0.00,,,0.00,Wunderground v.1.15,2013-01-03 13:20:00,
2013-01-03 08:25:00,7.7,-4.8,30.24,SW,226,2.0,3.0,56,0.00,,,0.00,Wunderground v.1.15,2013-01-03 13:25:00,
2013-01-03 08:30:00,7.8,-4.7,30.24,SW,227,2.0,3.0,56,0.00,,,0.00,Wunderground v.1.15,2013-01-03 13:30:00,
2013-01-03 08:35:00,7.9,-4.6,30.24,SW,227,2.0,2.0,56,0.00,,,0.00,Wunderground v.1.15,2013-01-03 13:35:00,
2013-01-03 08:40:00,8.0,-4.5,30.24,SW,227,1.0,2.0,56,0.00,,,0.00,Wunderground v.1.15,2013-01-03 13:40:00,
2013-01-03 08:45:00,8.4,-4.1,30.24,SW,227,1.0,1.0,56,0.00,,,0.00,Wunderground v.1.15,2013-01-03 13:45:00,
2013-01-03 08:50:00,8.9,-4.0,30.24,SW,227,1.0,1.0,55,0.00,,,0.00,Wunderground v.1.15,2013-01-03 13:50:00,
2013-01-03 08:55:00,9.2,-3.7,30.24,SW,227,1.0,1.0,55,0.00,,,0.00,Wunderground v.1.15,2013-01-03 13:55:00,
2013-01-03 09:01:00,9.4,-3.9,30.24,SW,227,1.0,1.0,54,0.00,,,0.00,Wunderground v.1.15,2013-01-03 14:01:00,
2013-01-03 09:10:00,9.8,-4.3,30.23,SE,132,1.0,1.0,52,0.00,,,0.00,Wunderground v.1.15,2013-01-03 14:10:00,
2013-01-03 09:15:00,9.7,-3.6,30.23,SE,132,1.0,1.0,54,0.00,,,0.00,Wunderground v.1.15,2013-01-03 14:15:00,
2013-01-03 09:25:00,9.5,-4.2,30.23,SE,132,1.0,1.0,53,0.00,,,0.00,Wunderground v.1.15,2013-01-03 14:25:00,
2013-01-03 09:30:00,9.8,-3.2,30.23,WSW,237,1.0,1.0,55,0.00,,,0.00,Wunderground v.1.15,2013-01-03 14:30:00,
2013-01-03 09:35:00,10.4,-2.2,30.23,WSW,237,1.0,1.0,56,0.00,,,0.00,Wunderground v.1.15,2013-01-03 14:35:00,
2013-01-03 09:40:00,10.4,-3.0,30.24,WSW,237,1.0,1.0,54,0.00,,,0.00,Wunderground v.1.15,2013-01-03 14:40:00,
2013-01-03 09:45:00,10.8,-2.2,30.24,WSW,237,1.0,1.0,55,0.00,,,0.00,Wunderground v.1.15,2013-01-03 14:45:00,
2013-01-03 09:50:00,11.2,-2.6,30.23,WSW,237,0.0,1.0,53,0.00,,,0.00,Wunderground v.1.15,2013-01-03 14:50:00,
2013-01-03 09:55:00,11.5,-2.0,30.23,WSW,237,0.0,0.0,54,0.00,,,0.00,Wunderground v.1.15,2013-01-03 14:55:00,
2013-01-03 10:05:00,11.3,-2.9,30.24,ESE,114,1.0,1.0,52,0.00,,,0.00,Wunderground v.1.15,2013-01-03 15:05:00,
2013-01-03 10:10:00,11.6,-2.7,30.23,ESE,114,1.0,1.0,52,0.00,,,0.00,Wunderground v.1.15,2013-01-03 15:10:00,
2013-01-03 10:15:00,12.0,-2.7,30.23,ESE,114,1.0,1.0,51,0.00,,,0.00,Wunderground v.1.15,2013-01-03 15:15:00,
2013-01-03 10:20:00,12.7,-2.5,30.23,ESE,114,1.0,1.0,50,0.00,,,0.00,Wunderground v.1.15,2013-01-03 15:20:00,
2013-01-03 10:25:00,13.0,-2.6,30.22,ESE,114,1.0,2.0,49,0.00,,,0.00,Wunderground v.1.15,2013-01-03 15:25:00,
2013-01-03 10:30:00,13.3,-2.3,30.23,ESE,114,1.0,2.0,49,0.00,,,0.00,Wunderground v.1.15,2013-01-03 15:30:00,
2013-01-03 10:35:00,13.6,-2.5,30.23,ESE,114,1.0,1.0,48,0.00,,,0.00,Wunderground v.1.15,2013-01-03 15:35:00,
2013-01-03 10:40:00,13.6,-2.9,30.22,East,93,2.0,2.0,47,0.00,,,0.00,Wunderground v.1.15,2013-01-03 15:40:00,
2013-01-03 10:45:00,13.7,-2.8,30.22,ESE,115,2.0,2.0,47,0.00,,,0.00,Wunderground v.1.15,2013-01-03 15:45:00,
2013-01-03 10:50:00,13.9,-2.7,30.22,East,96,2.0,2.0,47,0.00,,,0.00,Wunderground v.1.15,2013-01-03 15:50:00,
2013-01-03 10:55:00,14.2,-2.4,30.22,East,96,1.0,1.0,47,0.00,,,0.00,Wunderground v.1.15,2013-01-03 15:55:00,
2013-01-03 11:01:00,14.9,-1.7,30.21,East,96,1.0,1.0,47,0.00,,,0.00,Wunderground v.1.15,2013-01-03 16:01:00,
2013-01-03 11:05:00,15.5,-2.1,30.21,East,96,0.0,1.0,45,0.00,,,0.00,Wunderground v.1.15,2013-01-03 16:05:00,
2013-01-03 11:10:00,15.7,-2.4,30.21,East,96,1.0,1.0,44,0.00,,,0.00,Wunderground v.1.15,2013-01-03 16:10:00,
2013-01-03 11:15:00,16.1,-2.0,30.21,East,96,1.0,1.0,44,0.00,,,0.00,Wunderground v.1.15,2013-01-03 16:15:00,
2013-01-03 11:20:00,16.6,-1.6,30.21,East,96,0.0,2.0,44,0.00,,,0.00,Wunderground v.1.15,2013-01-03 16:20:00,
2013-01-03 11:25:00,16.7,-1.5,30.20,East,96,1.0,1.0,44,0.00,,,0.00,Wunderground v.1.15,2013-01-03 16:25:00,
2013-01-03 11:30:00,17.0,-1.7,30.20,East,96,0.0,1.0,43,0.00,,,0.00,Wunderground v.1.15,2013-01-03 16:30:00,
2013-01-03 11:35:00,16.9,-2.3,30.20,East,96,1.0,1.0,42,0.00,,,0.00,Wunderground v.1.15,2013-01-03 16:35:00,
2013-01-03 11:40:00,17.1,-1.6,30.20,East,96,1.0,2.0,43,0.00,,,0.00,Wunderground v.1.15,2013-01-03 16:40:00,
2013-01-03 11:45:00,17.1,-1.6,30.19,East,96,1.0,1.0,43,0.00,,,0.00,Wunderground v.1.15,2013-01-03 16:45:00,
2013-01-03 11:50:00,17.0,-2.2,30.19,East,96,1.0,1.0,42,0.00,,,0.00,Wunderground v.1.15,2013-01-03 16:50:00,
2013-01-03 11:55:00,17.0,-1.7,30.19,East,96,1.0,1.0,43,0.00,,,0.00,Wunderground v.1.15,2013-01-03 16:55:00,
2013-01-03 12:00:00,17.3,-1.4,30.18,East,96,0.0,0.0,43,0.00,,,0.00,Wunderground v.1.15,2013-01-03 17:00:00,
2013-01-03 12:05:00,17.5,-1.7,30.18,East,96,0.0,0.0,42,0.00,,,0.00,Wunderground v.1.15,2013-01-03 17:05:00,
2013-01-03 12:10:00,17.6,-1.1,30.18,West,266,1.0,2.0,43,0.00,,,0.00,Wunderground v.1.15,2013-01-03 17:10:00,
2013-01-03 12:15:00,17.9,-0.9,30.18,North,5,1.0,3.0,43,0.00,,,0.00,Wunderground v.1.15,2013-01-03 17:15:00,
2013-01-03 12:20:00,17.4,-1.3,30.18,NNW,338,2.0,3.0,43,0.00,,,0.00,Wunderground v.1.15,2013-01-03 17:20:00,
2013-01-03 12:25:00,17.2,-0.5,30.18,WNW,288,3.0,5.0,45,0.00,,,0.00,Wunderground v.1.15,2013-01-03 17:25:00,
2013-01-03 12:30:00,17.1,-0.2,30.17,West,278,3.0,3.0,46,0.00,,,0.00,Wunderground v.1.15,2013-01-03 17:30:00,
2013-01-03 12:35:00,17.1,-0.6,30.17,NW,308,3.0,3.0,45,0.00,,,0.00,Wunderground v.1.15,2013-01-03 17:35:00,
2013-01-03 12:40:00,17.3,-0.4,30.17,West,276,3.0,3.0,45,0.00,,,0.00,Wunderground v.1.15,2013-01-03 17:40:00,
2013-01-03 12:45:00,17.4,-0.8,30.17,WNW,303,4.0,4.0,44,0.00,,,0.00,Wunderground v.1.15,2013-01-03 17:45:00,
2013-01-03 12:50:00,17.5,-0.7,30.17,West,273,4.0,4.0,44,0.00,,,0.00,Wunderground v.1.15,2013-01-03 17:50:00,
2013-01-03 12:55:00,18.4,0.1,30.16,West,272,3.0,4.0,44,0.00,,,0.00,Wunderground v.1.15,2013-01-03 17:55:00,
2013-01-03 13:01:00,18.7,-0.1,30.16,West,279,3.0,3.0,43,0.00,,,0.00,Wunderground v.1.15,2013-01-03 18:01:00,
2013-01-03 13:05:00,18.6,-0.7,30.16,SW,217,4.0,4.0,42,0.00,,,0.00,Wunderground v.1.15,2013-01-03 18:05:00,
2013-01-03 13:10:00,19.1,-0.3,30.16,South,184,4.0,4.0,42,0.00,,,0.00,Wunderground v.1.15,2013-01-03 18:10:00,
2013-01-03 13:15:00,19.1,-0.8,30.17,SW,225,3.0,4.0,41,0.00,,,0.00,Wunderground v.1.15,2013-01-03 18:15:00,
2013-01-03 13:20:00,18.9,-0.5,30.16,West,277,3.0,3.0,42,0.00,,,0.00,Wunderground v.1.15,2013-01-03 18:20:00,
2013-01-03 13:25:00,18.7,-0.1,30.16,West,275,3.0,5.0,43,0.00,,,0.00,Wunderground v.1.15,2013-01-03 18:25:00,
2013-01-03 13:30:00,18.2,-0.1,30.16,WSW,243,3.0,6.0,44,0.00,,,0.00,Wunderground v.1.15,2013-01-03 18:30:00,
2013-01-03 13:35:00,17.8,-1.0,30.16,WSW,240,4.0,7.0,43,0.00,,,0.00,Wunderground v.1.15,2013-01-03 18:35:00,
2013-01-03 13:40:00,17.6,-0.6,30.16,WSW,248,4.0,4.0,44,0.00,,,0.00,Wunderground v.1.15,2013-01-03 18:40:00,
2013-01-03 13:45:00,17.6,-0.6,30.16,SSW,212,4.0,4.0,44,0.00,,,0.00,Wunderground v.1.15,2013-01-03 18:45:00,
2013-01-03 13:50:00,17.7,-0.6,30.16,West,275,3.0,3.0,44,0.00,,,0.00,Wunderground v.1.15,2013-01-03 18:50:00,
2013-01-03 13:55:00,18.0,-0.8,30.16,NW,304,3.0,5.0,43,0.00,,,0.00,Wunderground v.1.15,2013-01-03 18:55:00,
2013-01-03 14:05:00,18.1,-1.2,30.16,WNW,296,4.0,4.0,42,0.00,,,0.00,Wunderground v.1.15,2013-01-03 19:05:00,
2013-01-03 14:10:00,18.3,-1.5,30.15,SW,225,4.0,4.0,41,0.00,,,0.00,Wunderground v.1.15,2013-01-03 19:10:00,
2013-01-03 14:15:00,18.9,-1.0,30.15,WSW,245,3.0,5.0,41,0.00,,,0.00,Wunderground v.1.15,2013-01-03 19:15:00,
2013-01-03 14:55:00,20.9,0.3,30.14,WNW,284,2.0,3.0,40,0.00,,,0.00,Wunderground v.1.15,2013-01-03 19:55:00,
2013-01-03 15:00:00,21.5,0.9,30.14,WNW,297,1.0,2.0,40,0.00,,,0.00,Wunderground v.1.15,2013-01-03 20:00:00,
2013-01-03 15:05:00,20.8,-1.4,30.14,NW,314,2.0,2.0,37,0.00,,,0.00,Wunderground v.1.15,2013-01-03 20:05:00,
2013-01-03 15:10:00,20.2,-0.8,30.14,NW,312,3.0,3.0,39,0.00,,,0.00,Wunderground v.1.15,2013-01-03 20:10:00,
2013-01-03 15:15:00,20.4,0.4,30.14,West,279,2.0,3.0,41,0.00,,,0.00,Wunderground v.1.15,2013-01-03 20:15:00,
2013-01-03 15:20:00,19.9,-1.1,30.13,West,279,1.0,3.0,39,0.00,,,0.00,Wunderground v.1.15,2013-01-03 20:20:00,
2013-01-03 15:25:00,19.4,-0.5,30.14,WSW,254,2.0,3.0,41,0.00,,,0.00,Wunderground v.1.15,2013-01-03 20:25:00,
2013-01-03 15:30:00,19.6,-0.3,30.14,WSW,254,2.0,3.0,41,0.00,,,0.00,Wunderground v.1.15,2013-01-03 20:30:00,
2013-01-03 15:35:00,19.5,0.1,30.14,West,268,2.0,3.0,42,0.00,,,0.00,Wunderground v.1.15,2013-01-03 20:35:00,
2013-01-03 15:40:00,19.2,-0.2,30.14,West,265,2.0,2.0,42,0.00,,,0.00,Wunderground v.1.15,2013-01-03 20:40:00,
2013-01-03 15:45:00,19.0,-0.4,30.14,West,265,2.0,2.0,42,0.00,,,0.00,Wunderground v.1.15,2013-01-03 20:45:00,
2013-01-03 15:50:00,18.7,-0.6,30.14,West,265,2.0,2.0,42,0.00,,,0.00,Wunderground v.1.15,2013-01-03 20:50:00,
2013-01-03 15:55:00,18.3,-1.0,30.14,West,265,2.0,2.0,42,0.00,,,0.00,Wunderground v.1.15,2013-01-03 20:55:00,
2013-01-03 16:00:00,18.0,-0.8,30.14,WSW,244,2.0,2.0,43,0.00,,,0.00,Wunderground v.1.15,2013-01-03 21:00:00,
2013-01-03 16:10:00,17.6,-0.6,30.14,WSW,246,2.0,3.0,44,0.00,,,0.00,Wunderground v.1.15,2013-01-03 21:10:00,
2013-01-03 16:20:00,17.7,-0.6,30.13,WSW,247,3.0,3.0,44,0.00,,,0.00,Wunderground v.1.15,2013-01-03 21:20:00,
2013-01-03 16:25:00,17.6,-0.6,30.14,SW,233,3.0,4.0,44,0.00,,,0.00,Wunderground v.1.15,2013-01-03 21:25:00,
2013-01-03 16:30:00,17.3,-0.4,30.14,NNW,343,3.0,3.0,45,0.00,,,0.00,Wunderground v.1.15,2013-01-03 21:30:00,
2013-01-03 16:35:00,17.1,-0.6,30.14,WSW,237,3.0,4.0,45,0.00,,,0.00,Wunderground v.1.15,2013-01-03 21:35:00,
2013-01-03 16:45:00,17.2,-3.6,30.14,West,265,5.0,9.0,39,0.00,,,0.00,Wunderground v.1.15,2013-01-03 21:45:00,
2013-01-03 16:50:00,17.5,-3.3,30.14,WSW,258,7.0,7.0,39,0.00,,,0.00,Wunderground v.1.15,2013-01-03 21:50:00,
2013-01-03 16:55:00,17.7,-1.0,30.14,West,278,8.0,12.0,43,0.00,,,0.00,Wunderground v.1.15,2013-01-03 21:55:00,
2013-01-03 17:00:00,17.9,-0.9,30.13,North,9,8.0,8.0,43,0.00,,,0.00,Wunderground v.1.15,2013-01-03 22:00:00,
2013-01-03 17:05:00,17.7,-1.0,30.13,WNW,284,6.0,8.0,43,0.00,,,0.00,Wunderground v.1.15,2013-01-03 22:05:00,
2013-01-03 17:10:00,17.5,-1.2,30.13,NW,309,5.0,5.0,43,0.00,,,0.00,Wunderground v.1.15,2013-01-03 22:10:00,
2013-01-03 17:15:00,17.3,-2.4,30.13,West,271,4.0,5.0,41,0.00,,,0.00,Wunderground v.1.15,2013-01-03 22:15:00,
2013-01-03 17:20:00,17.2,-2.0,30.14,WNW,287,3.0,11.0,42,0.00,,,0.00,Wunderground v.1.15,2013-01-03 22:20:00,
2013-01-03 17:25:00,17.0,-1.2,30.14,West,267,4.0,11.0,44,0.00,,,0.00,Wunderground v.1.15,2013-01-03 22:25:00,
2013-01-03 17:30:00,16.8,-1.4,30.14,WSW,240,5.0,5.0,44,0.00,,,0.00,Wunderground v.1.15,2013-01-03 22:30:00,
2013-01-03 17:35:00,16.7,-0.5,30.14,NNW,333,6.0,6.0,46,0.00,,,0.00,Wunderground v.1.15,2013-01-03 22:35:00,
2013-01-03 17:40:00,16.9,1.0,30.14,WSW,247,6.0,6.0,49,0.00,,,0.00,Wunderground v.1.15,2013-01-03 22:40:00,
2013-01-03 17:45:00,16.7,0.4,30.14,SW,232,5.0,6.0,48,0.00,,,0.00,Wunderground v.1.15,2013-01-03 22:45:00,
2013-01-03 17:55:00,16.6,1.2,30.15,WNW,286,6.0,6.0,50,0.00,,,0.00,Wunderground v.1.15,2013-01-03 22:55:00,
2013-01-03 18:00:00,16.3,0.9,30.15,NW,312,4.0,4.0,50,0.00,,,0.00,Wunderground v.1.15,2013-01-03 23:00:00,
2013-01-03 18:05:00,16.5,1.5,30.15,SW,235,4.0,4.0,51,0.00,,,0.00,Wunderground v.1.15,2013-01-03 23:05:00,
2013-01-03 18:15:00,16.0,1.4,30.15,WSW,242,4.0,6.0,52,0.00,,,0.00,Wunderground v.1.15,2013-01-03 23:15:00,
2013-01-03 18:20:00,15.9,0.9,30.15,SW,234,4.0,4.0,51,0.00,,,0.00,Wunderground v.1.15,2013-01-03 23:20:00,
2013-01-03 18:25:00,15.6,0.7,30.15,West,259,4.0,4.0,51,0.00,,,0.00,Wunderground v.1.15,2013-01-03 23:25:00,
2013-01-03 18:30:00,15.7,1.2,30.15,SW,232,4.0,4.0,52,0.00,,,0.00,Wunderground v.1.15,2013-01-03 23:30:00,
2013-01-03 18:35:00,15.7,0.7,30.15,WSW,240,3.0,4.0,51,0.00,,,0.00,Wunderground v.1.15,2013-01-03 23:35:00,
2013-01-03 18:40:00,15.6,0.7,30.15,SW,232,2.0,2.0,51,0.00,,,0.00,Wunderground v.1.15,2013-01-03 23:40:00,
2013-01-03 18:45:00,15.5,1.0,30.15,SW,216,2.0,3.0,52,0.00,,,0.00,Wunderground v.1.15,2013-01-03 23:45:00,
2013-01-03 18:50:00,15.5,1.0,30.15,WSW,246,2.0,2.0,52,0.00,,,0.00,Wunderground v.1.15,2013-01-03 23:50:00,
2013-01-03 18:55:00,15.5,1.0,30.15,SSW,209,2.0,4.0,52,0.00,,,0.00,Wunderground v.1.15,2013-01-03 23:55:00,
2013-01-03 19:00:00,15.5,1.0,30.15,WSW,246,2.0,3.0,52,0.00,,,0.00,Wunderground v.1.15,2013-01-04 00:00:00,
2013-01-03 19:05:00,15.6,1.1,30.15,WSW,237,3.0,3.0,52,0.00,,,0.00,Wunderground v.1.15,2013-01-04 00:05:00,
2013-01-03 19:10:00,15.5,1.0,30.15,SW,225,4.0,4.0,52,0.00,,,0.00,Wunderground v.1.15,2013-01-04 00:10:00,
2013-01-03 19:16:00,15.4,0.9,30.15,SW,217,4.0,4.0,52,0.00,,,0.00,Wunderground v.1.15,2013-01-04 00:16:00,
2013-01-03 19:20:00,15.4,0.9,30.15,SW,227,3.0,3.0,52,0.00,,,0.00,Wunderground v.1.15,2013-01-04 00:20:00,
2013-01-03 19:25:00,15.4,1.7,30.15,SSW,213,3.0,6.0,54,0.00,,,0.00,Wunderground v.1.15,2013-01-04 00:25:00,
2013-01-03 19:30:00,15.5,2.2,30.16,SW,225,4.0,4.0,55,0.00,,,0.00,Wunderground v.1.15,2013-01-04 00:30:00,
2013-01-03 19:35:00,15.8,3.6,30.16,SW,218,4.0,4.0,58,0.00,,,0.00,Wunderground v.1.15,2013-01-04 00:35:00,
2013-01-03 19:40:00,16.2,3.6,30.16,West,263,4.0,4.0,57,0.00,,,0.00,Wunderground v.1.15,2013-01-04 00:40:00,
2013-01-03 19:45:00,16.4,3.4,30.15,WSW,242,3.0,4.0,56,0.00,,,0.00,Wunderground v.1.15,2013-01-04 00:45:00,
2013-01-03 19:50:00,16.2,3.2,30.15,SW,215,2.0,2.0,56,0.00,,,0.00,Wunderground v.1.15,2013-01-04 00:50:00,
2013-01-03 19:55:00,15.9,2.6,30.15,WSW,241,3.0,4.0,55,0.00,,,0.00,Wunderground v.1.15,2013-01-04 00:55:00,
2013-01-03 20:00:00,15.4,1.7,30.15,SW,232,3.0,4.0,54,0.00,,,0.00,Wunderground v.1.15,2013-01-04 01:00:00,
2013-01-03 20:05:00,15.4,2.1,30.14,West,280,4.0,5.0,55,0.00,,,0.00,Wunderground v.1.15,2013-01-04 01:05:00,
2013-01-03 20:10:00,15.4,2.5,30.14,SW,232,4.0,6.0,56,0.00,,,0.00,Wunderground v.1.15,2013-01-04 01:10:00,
2013-01-03 20:15:00,15.5,2.6,30.14,South,186,3.0,6.0,56,0.00,,,0.00,Wunderground v.1.15,2013-01-04 01:15:00,
2013-01-03 20:20:00,15.5,3.0,30.14,WSW,238,3.0,3.0,57,0.00,,,0.00,Wunderground v.1.15,2013-01-04 01:20:00,
2013-01-03 20:25:00,15.6,3.4,30.14,West,274,2.0,3.0,58,0.00,,,0.00,Wunderground v.1.15,2013-01-04 01:25:00,
2013-01-03 20:30:00,15.5,3.7,30.15,NW,311,2.0,4.0,59,0.00,,,0.00,Wunderground v.1.15,2013-01-04 01:30:00,
2013-01-03 20:35:00,15.3,4.2,30.15,SW,219,3.0,4.0,61,0.00,,,0.00,Wunderground v.1.15,2013-01-04 01:35:00,
2013-01-03 20:40:00,15.3,4.6,30.14,SW,221,5.0,5.0,62,0.00,,,0.00,Wunderground v.1.15,2013-01-04 01:40:00,
2013-01-03 20:45:00,15.5,4.8,30.14,SSW,211,6.0,6.0,62,0.00,,,0.00,Wunderground v.1.15,2013-01-04 01:45:00,
2013-01-03 20:50:00,15.6,4.9,30.14,WSW,242,7.0,7.0,62,0.00,,,0.00,Wunderground v.1.15,2013-01-04 01:50:00,
2013-01-03 20:55:00,15.7,5.3,30.14,WSW,242,6.0,7.0,63,0.00,,,0.00,Wunderground v.1.15,2013-01-04 01:55:00,
2013-01-03 21:00:00,15.7,5.3,30.14,SSW,210,6.0,6.0,63,0.00,,,0.00,Wunderground v.1.15,2013-01-04 02:00:00,
2013-01-03 21:05:00,15.8,5.8,30.13,SW,229,5.0,6.0,64,0.00,,,0.00,Wunderground v.1.15,2013-01-04 02:05:00,
2013-01-03 21:10:00,15.8,5.8,30.13,SW,236,6.0,6.0,64,0.00,,,0.00,Wunderground v.1.15,2013-01-04 02:10:00,
2013-01-03 21:15:00,15.7,5.7,30.13,SW,228,6.0,6.0,64,0.00,,,0.00,Wunderground v.1.15,2013-01-04 02:15:00,
2013-01-03 21:20:00,15.8,5.8,30.13,WSW,246,6.0,6.0,64,0.00,,,0.00,Wunderground v.1.15,2013-01-04 02:20:00,
2013-01-03 21:25:00,16.1,6.1,30.13,West,261,7.0,15.0,64,0.00,,,0.00,Wunderground v.1.15,2013-01-04 02:25:00,
2013-01-03 21:35:00,16.2,6.1,30.12,SW,217,7.0,9.0,64,0.00,,,0.00,Wunderground v.1.15,2013-01-04 02:35:00,
2013-01-03 21:40:00,16.0,6.0,30.12,SW,236,6.0,6.0,64,0.00,,,0.00,Wunderground v.1.15,2013-01-04 02:40:00,
2013-01-03 21:45:00,16.0,6.0,30.12,SSW,203,6.0,6.0,64,0.00,,,0.00,Wunderground v.1.15,2013-01-04 02:45:00,
2013-01-03 21:50:00,15.9,5.9,30.12,SW,228,7.0,7.0,64,0.00,,,0.00,Wunderground v.1.15,2013-01-04 02:50:00,
2013-01-03 21:55:00,15.7,6.0,30.12,SW,215,6.0,9.0,65,0.00,,,0.00,Wunderground v.1.15,2013-01-04 02:55:00,
2013-01-03 22:00:00,15.7,6.3,30.13,SW,230,7.0,7.0,66,0.00,,,0.00,Wunderground v.1.15,2013-01-04 03:00:00,
2013-01-03 22:10:00,15.8,6.4,30.13,West,260,7.0,7.0,66,0.00,,,0.00,Wunderground v.1.15,2013-01-04 03:10:00,
2013-01-03 22:15:00,15.7,6.3,30.13,WSW,238,7.0,8.0,66,0.00,,,0.00,Wunderground v.1.15,2013-01-04 03:15:00,
2013-01-03 22:20:00,15.6,6.3,30.13,WSW,257,6.0,6.0,66,0.00,,,0.00,Wunderground v.1.15,2013-01-04 03:20:00,
2013-01-03 22:25:00,15.8,6.4,30.13,SSW,206,7.0,7.0,66,0.00,,,0.00,Wunderground v.1.15,2013-01-04 03:25:00,
2013-01-03 22:35:00,16.2,6.8,30.12,SSW,203,7.0,7.0,66,0.00,,,0.00,Wunderground v.1.15,2013-01-04 03:35:00,
2013-01-03 22:40:00,16.3,7.3,30.11,WSW,250,5.0,5.0,67,0.00,,,0.00,Wunderground v.1.15,2013-01-04 03:40:00,
2013-01-03 22:45:00,16.4,7.3,30.11,West,271,5.0,5.0,67,0.00,,,0.00,Wunderground v.1.15,2013-01-04 03:45:00,
2013-01-03 22:50:00,16.4,7.3,30.11,West,274,5.0,7.0,67,0.00,,,0.00,Wunderground v.1.15,2013-01-04 03:50:00,
2013-01-03 22:55:00,16.8,8.1,30.11,WNW,290,5.0,7.0,68,0.00,,,0.00,Wunderground v.1.15,2013-01-04 03:55:00,
2013-01-03 23:00:00,17.1,8.0,30.11,West,259,6.0,6.0,67,0.00,,,0.00,Wunderground v.1.15,2013-01-04 04:00:00,
2013-01-03 23:05:00,17.2,7.8,30.11,WSW,257,7.0,8.0,66,0.00,,,0.00,Wunderground v.1.15,2013-01-04 04:05:00,
2013-01-03 23:10:00,16.9,7.5,30.11,WNW,286,8.0,8.0,66,0.00,,,0.00,Wunderground v.1.15,2013-01-04 04:10:00,
2013-01-03 23:15:00,16.8,7.7,30.11,West,268,7.0,8.0,67,0.00,,,0.00,Wunderground v.1.15,2013-01-04 04:15:00,
2013-01-03 23:20:00,16.5,7.4,30.10,WNW,284,6.0,11.0,67,0.00,,,0.00,Wunderground v.1.15,2013-01-04 04:20:00,
2013-01-03 23:30:00,16.1,7.4,30.09,SW,236,7.0,7.0,68,0.00,,,0.00,Wunderground v.1.15,2013-01-04 04:30:00,
2013-01-03 23:35:00,16.4,7.7,30.09,SW,224,8.0,8.0,68,0.00,,,0.00,Wunderground v.1.15,2013-01-04 04:35:00,
2013-01-03 23:40:00,16.3,7.6,30.09,SW,234,9.0,9.0,68,0.00,,,0.00,Wunderground v.1.15,2013-01-04 04:40:00,
2013-01-03 23:45:00,16.3,7.9,30.08,WSW,237,8.0,9.0,69,0.00,,,0.00,Wunderground v.1.15,2013-01-04 04:45:00,
2013-01-03 23:50:00,16.2,7.8,30.08,West,275,8.0,9.0,69,0.00,,,0.00,Wunderground v.1.15,2013-01-04 04:50:00,
2013-01-03 23:55:00,15.9,7.8,30.08,SW,236,7.0,15.0,70,0.00,,,0.00,Wunderground v.1.15,2013-01-04 04:55:00,